When you browse on this site, cookies collect data to enhance your experience and personalize the content and advertising you see.
Visit our Privacy Policy to learn more. By continuing to use the site, you agree to this use of cookies and data.
  • In Sweden
  • List of Countries
  • For 7 days
  • Water Temperature
  • Satellite Maps
  • Weather Map
  • Weather Widgets
  • user-avatar
    Login

    Hourly Weather Akyazı

    Today, 17 December, Monday

    Time Temperature Precipitation Wind Pressure Humidity
    00:00 +10°C° 0 mm 2 mps 755 mmHg 82%
    01:00 +10°C° 0 mm 2 mps 755 mmHg 82%
    02:00 +10°C° 0 mm 2 mps 754 mmHg 82%
    03:00 +10°C° 0 mm 2 mps 754 mmHg 82%
    04:00 +10°C° 0 mm 2 mps 754 mmHg 82%
    05:00 +10°C° 0 mm 2 mps 754 mmHg 83%
    06:00 +10°C° 0.2 mm 2 mps 754 mmHg 84%
    07:00 +10°C° 0.2 mm 2 mps 754 mmHg 84%
    08:00 +11°C° 0 mm 1 mps 755 mmHg 85%
    09:00 +12°C° 0.1 mm 1 mps 755 mmHg 82%
    10:00 +13°C° 0.1 mm 1 mps 755 mmHg 79%
    11:00 +14°C° 0.1 mm 1 mps 754 mmHg 75%
    12:00 +14°C° 0.1 mm 1 mps 754 mmHg 74%
    13:00 +15°C° 0.1 mm 1 mps 754 mmHg 72%
    14:00 +15°C° 0.1 mm 1 mps 754 mmHg 70%
    15:00 +13°C° 0.1 mm 0 mps 754 mmHg 75%
    16:00 +12°C° 0.1 mm 0 mps 754 mmHg 80%
    17:00 +11°C° 0.1 mm 0 mps 755 mmHg 85%
    18:00 +11°C° 0.2 mm 0 mps 755 mmHg 86%
    19:00 +11°C° 0.2 mm 0 mps 755 mmHg 87%
    20:00 +11°C° 0.2 mm 0 mps 755 mmHg 88%
    21:00 +11°C° 0.1 mm 0 mps 756 mmHg 89%
    22:00 +10°C° 0.1 mm 0 mps 756 mmHg 89%
    23:00 +10°C° 0.1 mm 0 mps 756 mmHg 90%

    Tomorrow, 18 December, Tuesday

    Time Temperature Precipitation Wind Pressure Humidity
    00:00 +10°C° 0.1 mm 0 mps 756 mmHg 90%
    01:00 +10°C° 0.1 mm 0 mps 756 mmHg 90%
    02:00 +10°C° 0.1 mm 0 mps 756 mmHg 91%
    03:00 +10°C° 0.1 mm 0 mps 756 mmHg 91%
    04:00 +10°C° 0.1 mm 0 mps 756 mmHg 91%
    05:00 +10°C° 0.1 mm 0 mps 756 mmHg 91%
    06:00 +11°C° 0 mm 1 mps 756 mmHg 91%
    07:00 +11°C° 0 mm 1 mps 756 mmHg 91%
    08:00 +11°C° 0 mm 1 mps 756 mmHg 91%
    09:00 +12°C° 0 mm 1 mps 756 mmHg 86%
    10:00 +13°C° 0 mm 1 mps 756 mmHg 81%
    11:00 +14°C° 0 mm 2 mps 756 mmHg 76%
    12:00 +14°C° 0 mm 2 mps 756 mmHg 76%
    13:00 +14°C° 0 mm 2 mps 755 mmHg 76%
    14:00 +14°C° 0 mm 3 mps 755 mmHg 76%
    15:00 +13°C° 0 mm 3 mps 755 mmHg 81%
    16:00 +12°C° 0 mm 3 mps 755 mmHg 86%
    17:00 +11°C° 0 mm 3 mps 755 mmHg 91%
    18:00 +11°C° 0.2 mm 3 mps 755 mmHg 92%
    19:00 +11°C° 0.2 mm 4 mps 755 mmHg 93%
    20:00 +10°C° 0.2 mm 4 mps 755 mmHg 93%
    21:00 +10°C° 1 mm 4 mps 755 mmHg 94%
    22:00 +10°C° 1 mm 4 mps 754 mmHg 94%
    23:00 +10°C° 1 mm 4 mps 754 mmHg 95%

    Day after tomorrow, 19 December, Wednesday

    Time Temperature Precipitation Wind Pressure Humidity
    00:00 +10°C° 1.6 mm 4 mps 754 mmHg 95%
    01:00 +10°C° 1.6 mm 4 mps 754 mmHg 95%
    02:00 +10°C° 1.6 mm 4 mps 753 mmHg 95%
    03:00 +10°C° 1.2 mm 3 mps 753 mmHg 96%
    04:00 +10°C° 1.2 mm 3 mps 753 mmHg 96%
    05:00 +9°C° 1.2 mm 3 mps 753 mmHg 96%
    06:00 +9°C° 1.4 mm 3 mps 753 mmHg 96%
    07:00 +9°C° 1.4 mm 2 mps 754 mmHg 96%
    08:00 +9°C° 1.4 mm 2 mps 754 mmHg 96%
    09:00 +9°C° 1.1 mm 3 mps 754 mmHg 96%
    10:00 +9°C° 1.1 mm 3 mps 755 mmHg 95%
    11:00 +8°C° 1.1 mm 4 mps 755 mmHg 94%
    12:00 +8°C° 0.6 mm 4 mps 755 mmHg 94%
    13:00 +8°C° 0.6 mm 4 mps 755 mmHg 93%
    14:00 +8°C° 0.6 mm 4 mps 755 mmHg 93%
    15:00 +7°C° 0.7 mm 4 mps 756 mmHg 93%
    16:00 +7°C° 0.7 mm 4 mps 757 mmHg 93%
    17:00 +7°C° 0.7 mm 4 mps 757 mmHg 94%
    18:00 +7°C° 0.8 mm 4 mps 758 mmHg 94%
    19:00 +7°C° 0.8 mm 4 mps 758 mmHg 94%
    20:00 +7°C° 0.8 mm 4 mps 759 mmHg 95%
    21:00 +7°C° 0.8 mm 4 mps 759 mmHg 95%
    22:00 +6°C° 0.8 mm 4 mps 760 mmHg 95%
    23:00 +6°C° 0.8 mm 4 mps 760 mmHg 95%

    20 December, Thursday

    Time Temperature Precipitation Wind Pressure Humidity
    00:00 +7°C° 0.5 mm 3 mps 760 mmHg 95%
    01:00 +7°C° 0.5 mm 3 mps 761 mmHg 95%
    02:00 +7°C° 0.5 mm 3 mps 761 mmHg 95%
    03:00 +7°C° 0.5 mm 3 mps 761 mmHg 95%
    04:00 +7°C° 0.5 mm 3 mps 761 mmHg 95%
    05:00 +7°C° 0.5 mm 3 mps 762 mmHg 95%
    06:00 +7°C° 0.4 mm 2 mps 762 mmHg 96%
    07:00 +7°C° 0.4 mm 2 mps 763 mmHg 96%
    08:00 +7°C° 0.4 mm 2 mps 763 mmHg 96%
    09:00 +7°C° 0.2 mm 2 mps 763 mmHg 95%
    10:00 +8°C° 0.2 mm 2 mps 764 mmHg 94%
    11:00 +8°C° 0.2 mm 2 mps 764 mmHg 93%
    12:00 +8°C° 0.1 mm 2 mps 764 mmHg 93%
    13:00 +8°C° 0.1 mm 2 mps 763 mmHg 92%
    14:00 +8°C° 0.1 mm 2 mps 763 mmHg 91%
    15:00 +8°C° 0.1 mm 2 mps 763 mmHg 92%
    16:00 +9°C° 0.1 mm 1 mps 764 mmHg 93%
    17:00 +9°C° 0.1 mm 1 mps 764 mmHg 94%
    18:00 +9°C° 0.1 mm 1 mps 764 mmHg 94%
    19:00 +8°C° 0.1 mm 1 mps 764 mmHg 95%
    20:00 +7°C° 0.1 mm 0 mps 765 mmHg 95%
    21:00 +7°C° 0 mm 0 mps 765 mmHg 95%
    22:00 +7°C° 0 mm 0 mps 764 mmHg 94%
    23:00 +7°C° 0 mm 0 mps 764 mmHg 94%

    21 December, Friday

    Time Temperature Precipitation Wind Pressure Humidity
    00:00 +6°C° 0 mm 0 mps 764 mmHg 93%
    01:00 +6°C° 0 mm 0 mps 764 mmHg 93%
    02:00 +6°C° 0 mm 0 mps 764 mmHg 92%
    03:00 +6°C° 0 mm 0 mps 764 mmHg 92%
    04:00 +7°C° 0 mm 1 mps 764 mmHg 91%
    05:00 +6°C° 0 mm 1 mps 764 mmHg 91%
    06:00 +7°C° 0 mm 1 mps 764 mmHg 90%
    07:00 +7°C° 0 mm 1 mps 764 mmHg 89%
    08:00 +7°C° 0 mm 1 mps 764 mmHg 88%
    09:00 +8°C° 0 mm 1 mps 763 mmHg 83%
    10:00 +10°C° 0 mm 1 mps 763 mmHg 78%
    11:00 +11°C° 0 mm 1 mps 763 mmHg 73%
    12:00 +11°C° 0 mm 1 mps 763 mmHg 72%
    13:00 +12°C° 0 mm 1 mps 762 mmHg 72%
    14:00 +12°C° 0 mm 1 mps 761 mmHg 71%
    15:00 +11°C° 0 mm 1 mps 762 mmHg 77%
    16:00 +10°C° 0 mm 1 mps 762 mmHg 83%
    17:00 +9°C° 0 mm 1 mps 762 mmHg 89%
    18:00 +8°C° 0 mm 1 mps 762 mmHg 90%
    19:00 +7°C° 0 mm 0 mps 763 mmHg 92%
    20:00 +7°C° 0 mm 0 mps 763 mmHg 93%
    21:00 +8°C° 0.1 mm 1 mps 763 mmHg 93%
    22:00 +8°C° 0.1 mm 1 mps 763 mmHg 94%
    23:00 +8°C° 0.1 mm 1 mps 763 mmHg 94%

    22 December, Saturday

    Time Temperature Precipitation Wind Pressure Humidity
    00:00 +8°C° 0.2 mm 1 mps 763 mmHg 93%
    01:00 +8°C° 0.2 mm 1 mps 763 mmHg 93%
    02:00 +8°C° 0.2 mm 1 mps 763 mmHg 93%
    03:00 +8°C° 0.2 mm 1 mps 763 mmHg 93%
    04:00 +7°C° 0.2 mm 2 mps 763 mmHg 93%
    05:00 +7°C° 0.2 mm 2 mps 763 mmHg 93%
    06:00 +8°C° 0.1 mm 1 mps 763 mmHg 93%
    07:00 +7°C° 0.1 mm 1 mps 763 mmHg 93%
    08:00 +7°C° 0.1 mm 1 mps 764 mmHg 93%
    09:00 +8°C° 0 mm 1 mps 764 mmHg 87%
    10:00 +8°C° 0 mm 2 mps 763 mmHg 82%
    11:00 +10°C° 0 mm 2 mps 763 mmHg 76%
    12:00 +10°C° 0 mm 2 mps 763 mmHg 73%
    13:00 +12°C° 0 mm 2 mps 762 mmHg 70%
    14:00 +12°C° 0 mm 2 mps 762 mmHg 66%
    15:00 +10°C° 0 mm 2 mps 762 mmHg 70%
    16:00 +10°C° 0 mm 1 mps 762 mmHg 74%
    17:00 +9°C° 0 mm 1 mps 762 mmHg 78%
    18:00 +9°C° 0 mm 1 mps 762 mmHg 78%
    19:00 +9°C° 0 mm 1 mps 762 mmHg 78%
    20:00 +8°C° 0 mm 1 mps 762 mmHg 78%
    21:00 +8°C° 0 mm 1 mps 762 mmHg 77%
    22:00 +7°C° 0 mm 2 mps 762 mmHg 77%
    23:00 +7°C° 0 mm 2 mps 762 mmHg 76%
    Show more